Погода в Очёре

Россия / Пермский край     57°53′12″N   54°42′56″E
темп.,
°C
ветер,
м/с
пор.,
м/с
влажн.,
%
обл.,
%
осадки,
мм/ч
давл.,
гПа
погр.,
м
8 марта, пн
пн823:00−16ю389789 0.1 1007179
02:00−17ю359999 0.0 1005109
05:00−15ююв389699 0.1 1002257
08:00−14юв4995100 0.4 1000364
11:00−12юв5892100 0.9 998509
14:00−9юв4891100 0.3 996608
17:00−7всв4794100 0.9 994468
20:00−9ссз2496100 0.9 995176
9 марта, вт
вт923:00−11с1197100 1.4 99821
02:00−12всв0197100 0.1 100021
05:00−13з1197100 0.4 100131
08:00−14ссз239793 0.2 100262
11:00−12ссз349395 0.3 1005324
14:00−10ссз2386100 0.1 1007522
17:00−10с2388100 0.2 1009482
20:00−13ссв3695100 0.1 1010224
10 марта, ср
ср1023:00−16ссв4895100 0.3 1012312
02:00−20ссв4896100 0.1 1013324
05:00−24ссв41095100 0.1 1013269
08:00−28с5119477 0.0 1014274
11:00−25с6118971 0.0 1014362
14:00−19с7128377 0.0 1013579
17:00−18с7128381 0.0 1013700
20:00−21с5148982 0.0 1014545
11 марта, чт
чт1123:00−22с4139486 0.0 1015402
02:00−24ссз389892 0.0 1015172
05:00−25сз369954 0.0 1016116
08:00−24зсз259796 0.0 1016108
11:00−18зсз379498 0.1 1015328
14:00−12зсз4890100 0.2 1014647
17:00−7сз61190100 0.5 10131056
20:00−9сз51291100 0.2 1014757
12 марта, пт
пт1223:00−11сз51289100 0.3 1016808
02:00−13сз51192100 0.1 1017524
05:00−16сз41192100 0.1 1019396
08:00−15зсз41192100 0.0 1020442
11:00−12зсз4987100 0.0 1021545
14:00−9з51080100 0.0 1022719
17:00−8з5117997 0.0 1021776
20:00−10з51384100 0.0 1022619